sat.trackr.live / text

‹ back to catalog

STARLINK-32905

NORAD 62923 · 2025-027S

PAYLOAD ACTIVE UNKNOWN

§ Identity

Operator
Country
US
Launch date
2025-02-08
Launch site
AFETR
Launch vehicle
Mass (kg)
RCS (m²)

Purposes: comms

External: N2YO · Heavens-Above · Gunter

§ Orbital elements

Epoch: 2026-05-24T22:54:42.558336Z

Period
94.27 min
Inclination
43.0021°
Eccentricity
0.0001342
Mean motion
15.27598251 rev/d
Perigee alt
482.1 km
Apogee alt
483.9 km
Semi-major
6,861.1 km
B*
7.9988e-4
RAAN
58.3694°
Arg perigee
230.3447°
Mean anomaly
129.7287°
Rev number
7,320

§ Raw data

STARLINK-329051 62923U 25027S   26144.95465924  .00021826  00000+0  79988-3 0  99912 62923  43.0021  58.3694 0001342 230.3447 129.7287 15.27598251 73205

JSON: /api/v1/satellites/62923 · /tle

For live sub-satellite position, see the globe view (requires WebGL).

§ Visibility from observer

Set your observer location to see the next 7 days of passes ≥ 10°. The values pass through the URL so the page stays shareable.

No JS? Fill the form by hand. The geolocation button needs JavaScript.